HIMAWARI-9 (41836 NORAD) Tracking and Keplerian Element Data

This shows tracking and keplerian element data for the satellite.

Feedback or suggestion? Click here.




ElementValue
Catalog41836
NameHIMAWARI-9
Epoch Orbit751
Epoch Day318.46035894
Epoch Year2018
RAAN283.349
Inclination0.0096
Eccentricity7.35E-05
Argument of Perigee300.0262
Mean Anonmoly136.619
Mean Motion1.00269027
Decay Rate-2.75E-06
L11 41836U 16064A 18318.46035894 -.00000275 00000-0 00000+0 0 9993
L22 41836 0.0096 283.3490 0000735 300.0262 136.6190 1.00269027 7512

Live tracking and technical data element details for HIMAWARI-9 (NORAD 41836). HIMAWARI-9 can be tracked NOW for your location showing map with azimuth and elevation plus other details from your city location.

Track the satellite on the map from your city or location and see movement details for azimuth, elevation, latitude, longitude, range, height, and movement on the map or in text.







IsCatalogInMostPopularTable: catalog: 41836, numindb: 116
Update: records affected: 1



GetName: 41836 HIMAWARI-9

Hit Count: updated at: Fri, 16 Nov 2018 03:30:02 GMT